This is the latest recevied weather packets stored in our database for station/object DB0SMU-12. If no packets are shown the sender has not sent any weather packets the latest 10 day(s).
| Time | Temp. | Humidity | Pressure | Rain* | Wind** | Luminosity | Snow |
|---|---|---|---|---|---|---|---|
| 1778203288 | 6.67° C | 86% | 1017.2 hPa | 0 mm | - | - | - |
| 1778203107 | 6.11° C | 87% | 1017.2 hPa | 0 mm | - | - | - |
| 1778202927 | 6.67° C | 86% | 1017.2 hPa | 0 mm | - | - | - |
| 1778202746 | 6.67° C | 86% | 1017.3 hPa | 0 mm | - | - | - |
| 1778202565 | 6.67° C | 85% | 1017.3 hPa | 0 mm | - | - | - |
| 1778202384 | 6.67° C | 83% | 1017.3 hPa | 0 mm | - | - | - |
| 1778202203 | 7.22° C | 81% | 1017.5 hPa | 0 mm | - | - | - |
| 1778202022 | 6.67° C | 81% | 1017.5 hPa | 0 mm | - | - | - |
| 1778201841 | 7.22° C | 82% | 1017.4 hPa | 0 mm | - | - | - |
| 1778201660 | 7.22° C | 81% | 1017.3 hPa | 0 mm | - | - | - |
| 1778201479 | 7.22° C | 81% | 1017.4 hPa | 0 mm | - | - | - |
| 1778201299 | 7.22° C | 81% | 1017.4 hPa | 0 mm | - | - | - |
| 1778201118 | 7.22° C | 79% | 1017.5 hPa | 0 mm | - | - | - |
| 1778200937 | 7.22° C | 80% | 1017.4 hPa | 0 mm | - | - | - |
| 1778200756 | 7.22° C | 79% | 1017.4 hPa | 0 mm | - | - | - |
| 1778200575 | 7.22° C | 79% | 1017.5 hPa | 0 mm | - | - | - |
| 1778200394 | 7.22° C | 78% | 1017.5 hPa | 0 mm | - | - | - |
| 1778200213 | 7.22° C | 80% | 1017.5 hPa | 0 mm | - | - | - |
| 1778200032 | 7.22° C | 80% | 1017.5 hPa | 0 mm | - | - | - |
| 1778199852 | 7.22° C | 77% | 1017.6 hPa | 0 mm | - | - | - |
| 1778199671 | 7.22° C | 76% | 1017.5 hPa | 0 mm | - | - | - |
| 1778199490 | 7.22° C | 77% | 1017.5 hPa | 0 mm | - | - | - |
| 1778199309 | 7.22° C | 78% | 1017.6 hPa | 0 mm | - | - | - |
| 1778199128 | 7.78° C | 76% | 1017.6 hPa | 0 mm | - | - | - |
| 1778198947 | 7.78° C | 76% | 1017.6 hPa | 0 mm | - | - | - |
* Rain latest hour (hover to see other rain measurements)
** Current wind speed in m/s (hover to see current wind gust speed)